User: anonymous   Login
Location: Unspecified
(0.0000°N, 0.0000°E)
Time: 09:33:15
(UTC+00:00)
Language:

TACSAT 4 - Orbit

View from above orbital plane
View from above orbital plane
View from above satellite
View from above satellite

Ground track
Ground track

The orbit data is extracted from the following two-line orbital elements,

1 37818U 11052A   19083.57857697 +.00000449 +00000-0 +80428-3 0  9993
2 37818 063.2150 065.8071 4585157 219.7463 188.9384 06.02755354164740
Epoch (UTC): 24 March 2019 13:53:09
Eccentricity: 0.4585157
inclination: 63.2150°
perigee height: 528 km
apogee height: 12223 km
right ascension of ascending node: 65.8071°
argument of perigee: 219.7463°
revolutions per day: 6.02755354
mean anomaly at epoch: 188.9384°
orbit number at epoch: 16474

The dashed part of the orbit path shows where the satellite is in the earth's shadow,  

DLR